Simultaneous Nadir Overpasses (SNOs) Predictions

Prediction of SNOs between NOAA-20 and AQUA Satellite Orbit:

Table of predicted SNOs for the next 14.0 days since TLE Epoch: 5/14/2022
Index Date (NOAA-20) Time (NOAA-20) Lat,Lon (NOAA-20) SZA (NOAA-20 ) Date (AQUA) Time (AQUA) Lat,Lon (AQUA) SZA (AQUA ) Distance(km) Time Diff (sec)
1 05/15/2022 17:08:36 -77.75, -11.16 103.81 05/15/2022 17:09:13 -77.74, -11.23 103.82 1.59 37
2 05/15/2022 17:59:05 78.37, 159.40 75.33 05/15/2022 17:58:24 78.37, 159.34 75.37 1.39 41
3 05/18/2022 08:34:55 77.30, -64.77 76.22 05/18/2022 08:36:00 77.31, -64.68 76.14 2.28 65
4 05/18/2022 09:25:23 -78.04, 106.04 104.79 05/18/2022 09:25:11 -78.04, 106.11 104.79 1.79 12
5 05/21/2022 00:51:32 78.05, 54.56 74.66 05/21/2022 00:51:49 78.04, 54.45 74.67 2.84 17
6 05/21/2022 01:42:09 -78.39,-136.26 105.83 05/21/2022 01:41:08 -78.40,-136.17 105.81 2.28 61
7 05/23/2022 16:17:52 -77.66, 1.10 105.31 05/23/2022 16:18:37 -77.67, 1.13 105.36 0.74 45
8 05/23/2022 17:08:21 78.28, 171.58 73.83 05/23/2022 17:07:48 78.29, 171.63 73.84 1.29 33
9 05/26/2022 07:44:01 77.66, -50.44 74.24 05/26/2022 07:45:14 77.66, -50.55 74.20 2.72 73
10 05/26/2022 08:34:38 -78.02, 118.66 106.27 05/26/2022 08:34:33 -78.03, 118.75 106.28 2.12 5



Historial Predications of SNOs between NOAA-20 and AQUA
